Retour au catalogue

COSMOS 1317 DEB

LostHEO
NORAD 35510·DEBRIS·🇷🇺 Russia

Lancé Oct 31, 1981 depuis Plesetsk Cosmodrome

Loading…

Prochains Passages (prochaines 24 heures)

TLE

PériméSource: Space-Track

Époque: Apr 12, 2009, 11:53 UTC

1 35510U 81108K   09102.49526896 -.00000593  00000-0  10000-3 0  9995
2 35510  70.8103 357.5432 5424658 155.4697 244.8584  2.00125162  3282

Suivez COSMOS 1317 DEB en temps réel avec AllMySat

Download on the App Store